Location: Gwatt
(46.7204°N, 7.6223°E)
Time: 08:01:38
(UTC+00:00)

X-37B - Visible Passes

Search period start: 26 November 2020 00:00
Search period end: 06 December 2020 00:00
Orbit: 384 x 389 km, 45.0° (Epoch: 12 November)

Date Brightness Start Highest point End Pass type
(mag) Time Alt. Az. Time Alt. Az. Time Alt. Az.
26 Nov 3.2 17:31:18 10° SSE 17:31:54 11° SSE 17:31:54 11° SSE visible
27 Nov 3.1 18:07:20 10° SW 18:08:24 17° SSW 18:08:24 17° SSW visible
28 Nov 2.5 17:09:24 10° SSW 17:11:42 18° SSE 17:12:32 17° SE visible
29 Nov 1.7 17:46:26 10° SW 17:48:55 36° S 17:48:55 36° S visible
30 Nov 2.0 16:48:12 10° SW 16:50:57 27° SSE 16:52:59 15° ESE visible
30 Nov 3.3 18:24:11 10° WSW 18:25:15 19° WSW 18:25:15 19° WSW visible
01 Dec 1.0 17:25:41 10° WSW 17:28:47 52° S 17:29:18 45° SE visible
02 Dec 1.6 16:27:18 10° SW 16:30:17 39° SSE 16:33:17 10° E visible
02 Dec 2.2 18:03:35 10° W 18:05:36 35° WSW 18:05:36 35° WSW visible
03 Dec 0.8 17:05:03 10° WSW 17:08:11 62° S 17:09:39 28° ESE visible
03 Dec 4.0 18:41:35 10° W 18:41:55 12° W 18:41:55 12° W visible
04 Dec 0.9 17:43:01 10° W 17:46:00 59° SSW 17:46:00 59° SSW visible
05 Dec 0.8 16:44:27 10° W 16:47:36 65° S 16:50:07 15° E visible
05 Dec 3.2 18:21:03 10° W 18:22:24 21° WSW 18:22:24 21° WSW visible
